Location: Colebrook
(42.0017°N, 73.0973°W)
Time: 04:21:24
(UTC-04:00)

Vanguard 1 - All Passes

Search period start: 21 October 2021 00:00
Search period end: 31 October 2021 00:00
Orbit: 653 x 3829 km, 34.2° (Epoch: 19 October)

Date Brightness Start Highest point End Pass type
(mag) Time Alt. Az. Time Alt. Az. Time Alt. Az.
21 Oct - 11:53:00 10° S 11:54:33 12° SSE 11:56:11 10° SE daylight
21 Oct - 14:09:03 10° SW 14:13:34 37° SSE 14:20:11 10° E daylight
21 Oct - 16:27:38 10° WSW 16:33:38 44° S 16:43:58 10° ESE daylight
21 Oct - 18:47:30 10° WSW 18:55:01 29° SSW 19:06:57 10° SSE visible
21 Oct - 21:14:42 10° SW 21:17:37 11° SW 21:20:48 10° SSW visible
22 Oct - 12:12:11 10° SSW 12:15:06 17° SSE 12:18:21 10° ESE daylight
22 Oct - 14:29:39 10° WSW 14:34:19 41° S 14:41:21 10° ESE daylight
22 Oct - 16:48:30 10° WSW 16:54:34 39° S 17:04:53 10° SE daylight
22 Oct - 19:09:03 10° WSW 19:16:06 23° SSW 19:26:32 10° SSE visible
23 Oct - 12:32:11 10° SSW 12:35:43 23° SSE 12:39:48 10° ESE daylight
23 Oct - 14:50:20 10° WSW 14:55:06 42° S 15:02:27 10° ESE daylight
23 Oct - 17:09:27 10° WSW 17:15:32 34° SSW 17:25:32 10° SE daylight
23 Oct - 19:31:13 10° WSW 19:37:13 17° SSW 19:45:15 10° S visible
24 Oct - 12:52:31 10° SW 12:56:22 28° SSE 13:01:01 10° ESE daylight
24 Oct - 15:11:05 10° WSW 15:15:56 40° S 15:23:29 10° ESE daylight
24 Oct - 17:30:33 10° WSW 17:36:31 28° SSW 17:45:52 10° SE daylight
24 Oct - 19:55:14 10° SW 19:58:21 11° SSW 20:01:55 10° SSW visible
25 Oct - 10:56:03 10° S 10:57:52 12° SSE 10:59:39 10° SE daylight
25 Oct - 13:13:03 10° SW 13:17:04 33° S 13:22:07 10° ESE daylight
25 Oct - 15:31:53 10° WSW 15:36:47 36° S 15:44:23 10° SE daylight
25 Oct - 17:51:56 10° WSW 17:57:32 22° SSW 18:05:44 10° SSE daylight
26 Oct - 11:15:30 10° SSW 11:18:32 17° SSE 11:21:31 10° ESE daylight
26 Oct - 13:33:42 10° WSW 13:37:49 36° S 13:43:09 10° ESE daylight
26 Oct - 15:52:47 10° WSW 15:57:39 31° S 16:05:06 10° SE daylight
26 Oct - 18:13:51 10° WSW 18:18:35 16° SSW 18:24:52 10° S visible
27 Oct - 11:35:38 10° SW 11:39:14 22° SSE 11:42:49 10° ESE daylight
27 Oct - 13:54:25 10° WSW 13:58:36 36° S 14:04:06 10° ESE daylight
27 Oct - 16:13:49 10° WSW 16:18:34 26° SSW 16:25:33 10° SE daylight
27 Oct - 18:37:25 10° SW 18:39:39 11° SSW 18:42:08 10° SSW visible
28 Oct - 09:39:30 10° SSE 09:40:27 10° SSE 09:41:21 10° SSE daylight
28 Oct - 11:56:04 10° SW 11:59:57 27° SSE 12:03:54 10° ESE daylight
28 Oct - 14:15:13 10° WSW 14:19:23 33° S 14:24:57 10° ESE daylight
28 Oct - 16:35:06 10° WSW 16:39:29 20° SSW 16:45:36 10° SSE daylight
29 Oct - 09:58:06 10° SSW 10:01:14 15° SSE 10:03:58 10° SE daylight
29 Oct - 12:16:41 10° WSW 12:20:41 31° S 12:24:53 10° ESE daylight
29 Oct - 14:36:06 10° WSW 14:40:11 29° S 14:45:41 10° SE daylight
29 Oct - 16:56:52 10° SW 17:00:27 15° SSW 17:05:00 10° S daylight
30 Oct - 10:18:01 10° SSW 10:22:01 20° SSE 10:25:23 10° ESE daylight
30 Oct - 12:37:24 10° WSW 12:41:27 33° S 12:45:46 10° ESE daylight
30 Oct - 14:57:06 10° WSW 15:01:00 24° SSW 15:06:12 10° SE daylight
30 Oct - 17:20:58 10° SSW 17:21:25 10° SSW 17:21:53 10° SSW daylight
